Terminal Aerodrome Forecast
Issued by NWS

Home | Current Version | Previous Version | Text Only | Print | Product List | Glossary On
Versions: 1 2 3 4 5 6 7 8 9 10 11 12 13 14 15 16 17 18
000
FTUS43 KDLH 010400 AAB
TAFBRD
TAF AMD
KBRD 010401Z 0104/0124 18010KT 6SM -SN BKN035 OVC080
     FM010600 25006KT P6SM SCT028 BKN060
     FM011600 27012KT P6SM BKN035=

USA.gov is the U.S. government's official web portal to all federal, state and local government web resources and services.